Location: Hunton
(51.2000°N, 0.4833°E)
Time: 06:17:58
(UTC+00:00)

Daily predictions for brighter satellites

Satellite Brightness Start Highest point End
(mag) Time Altitude Azimuth Time Altitude Azimuth Time Altitude Azimuth
BREEZE-M DEB (TANK) 3.4 20:58:32 10° S 21:00:08 15° SE 21:02:19 10° E
SL-23 DEB 4.1 20:57:26 10° W 21:01:00 90° SSE 21:06:43 10° E
Cosmos 2333 Rocket 3.5 20:57:34 10° SSE 21:01:48 22° ESE 21:06:03 10° NE
Cosmos 1727 Rocket 4.1 20:55:58 10° S 21:02:16 79° E 21:08:34 10° NNE
Cosmos 1953 2.4 21:01:33 10° N 21:05:37 72° ENE 21:09:40 10° SSE
Cosmos 1741 Rocket 4.2 21:01:03 10° NNW 21:06:19 78° WSW 21:11:36 10° SSE
Cosmos 1626 3.0 21:04:58 10° SSE 21:08:14 31° E 21:11:34 10° NNE
SPOT 3 Rocket 4.4 21:03:49 10° S 21:08:49 49° W 21:13:52 10° NNW
USA 238 DEB 4.0 21:02:29 10° SW 21:09:06 75° NW 21:16:07 10° NE
USA 238 4.0 21:02:35 10° SW 21:09:12 76° NW 21:16:13 10° NE
Cosmos 1844 3.8 21:05:14 10° NNW 21:10:50 77° ENE 21:16:26 10° SE
Cosmos 2219 Rocket 3.5 21:08:36 10° SSE 21:12:52 22° ESE 21:17:09 10° NE
Cosmos 2285 Rocket 4.4 21:07:24 10° SSW 21:13:50 73° WNW 21:20:18 10° NNE
Cosmos 1802 Rocket 4.1 21:10:39 10° N 21:16:54 68° ENE 21:23:12 10° SSE
CENTAUR R/B 3.0 21:11:03 10° SW 21:17:12 72° NW 21:24:39 10° NE
DNEPR-1 R/B 3.7 21:17:56 10° NW 21:22:11 65° NE 21:26:30 10° SE
NOSS 8 (A) 4.0 21:21:47 10° SW 21:25:00 74° SE 21:27:55 10° NE
KORONAS-FOTON 3.8 21:23:27 10° S 21:27:15 89° W 21:31:04 10° N
Cosmos 1025 Rocket 3.2 21:23:31 10° S 21:27:49 57° E 21:32:07 10° NNE
Aureole 1 Rocket 4.1 21:22:44 10° NNW 21:28:22 79° WSW 21:35:38 10° SSE
Genesis I 4.2 21:26:50 10° WSW 21:30:39 53° NW 21:34:33 10° NE
Cosmos 1459 Rocket 4.0 21:25:07 10° N 21:31:13 83° W 21:37:16 10° S
Cosmos 1461 3.5 21:28:17 10° NW 21:32:23 47° WSW 21:36:05 11° SSE
CARTOSAT-1 4.0 21:28:14 10° S 21:32:30 60° W 21:36:48 10° NNW
Resurs 01 Rocket 3.7 21:30:38 10° SW 21:34:07 22° W 21:37:36 10° NW
SL-16 R/B 2.8 21:29:10 10° SW 21:34:47 63° NW 21:40:27 10° NNE
Cosmos 2360 Rocket 2.2 21:29:12 10° SSW 21:34:49 71° ESE 21:40:27 10° NNE
Cosmos 2322 Rocket 2.5 21:31:08 10° SW 21:36:51 74° WNW 21:42:35 10° NNE
USA 267 3.7 21:31:28 10° E 21:37:55 64° NNE 21:44:24 10° WNW
Cosmos 1900 4.4 21:35:43 10° NW 21:40:38 72° SW 21:44:58 13° SSE
Cosmos 1975 Rocket 3.6 21:37:23 10° SSW 21:41:42 61° WNW 21:46:05 10° N
Cosmos 1455 4.4 21:40:26 10° NNE 21:42:42 15° ENE 21:44:57 10° E
Cosmos 1674 3.2 21:40:06 10° SSW 21:43:46 58° WNW 21:47:27 10° N
ATLAS CENTAUR R/B 1.5 21:40:07 10° NW 21:44:25 85° SW 21:48:22 14° SE
Cosmos 1110 Rocket 4.0 21:40:15 10° SSW 21:45:25 79° ESE 21:50:40 10° NNE
SPOT 5 3.2 21:41:45 10° S 21:46:52 66° WSW 21:51:45 10° NNW
Cosmos 968 Rocket 3.8 21:43:57 10° NNW 21:49:00 58° ENE 21:53:28 13° SE
Cosmos 1300 2.7 21:47:36 10° N 21:51:26 70° ENE 21:54:30 15° SSE
Cosmos 2061 Rocket 4.1 21:46:35 10° N 21:53:04 88° W 21:59:13 11° S
COSMOS 2428 3.4 21:48:21 11° S 21:53:24 36° ESE 21:58:36 10° NE
Terra 1.9 21:49:22 12° S 21:53:50 77° WSW 21:58:38 10° NNW
FALCON 9 DEB 4.5 21:54:51 17° SE 21:54:52 17° SE 21:57:00 10° E
Cosmos 2322 3.9 21:49:40 10° S 21:55:06 51° ESE 22:00:34 10° NE
SL-24 R/B 4.5 21:52:28 10° N 21:57:19 62° E 22:01:29 14° S
Cosmos 2278 Rocket 3.0 21:53:13 10° NNW 21:58:41 46° NE 22:04:01 11° SE
Cosmos 405 3.0 21:55:39 10° NNW 21:59:07 77° W 22:01:49 16° S
Lacrosse 5 4.1 21:58:06 10° W 22:00:02 12° WSW 22:01:57 10° SW
Cosmos 2123 Rocket 4.1 21:59:48 10° S 22:06:07 88° E 22:12:30 10° N
Cosmos 1844 Rocket 3.7 22:02:19 10° NW 22:07:33 38° WSW 22:12:33 11° S
Cosmos 1340 2.7 22:06:52 10° SSW 22:10:34 82° WNW 22:14:22 10° N
ARIANE 5 R/B 4.3 22:07:39 10° SSW 22:11:30 28° W 22:15:24 10° NW
Cosmos 2233 Rocket 4.0 22:05:56 10° N 22:12:08 81° E 22:17:17 15° SSE
H-2A R/B 3.4 22:08:15 10° NNE 22:12:23 83° ESE 22:16:09 12° SSW
FALCON 9 DEB 3.0 22:10:17 10° WSW 22:13:41 69° SSE 22:17:06 10° ENE
Cosmos 1346 Rocket 3.6 22:11:16 18° SSE 22:13:43 35° E 22:17:25 10° NNE
FALCON 9 DEB 3.7 22:12:32 10° SSW 22:15:16 29° SSE 22:18:01 10° E
GEOS 3 Rocket 3.7 22:11:18 13° SE 22:16:07 83° NE 22:21:30 10° NW
FALCON 9 DEB 3.9 22:18:00 21° S 22:19:06 26° SE 22:21:46 10° E
Meteor 2-5 Rocket 3.7 22:18:54 11° S 22:24:13 87° E 22:29:53 10° NNE
FALCON 9 DEB 3.5 22:21:52 10° SSW 22:24:41 32° SSE 22:27:31 10° E
Cosmos 1606 Rocket 3.8 22:21:45 10° N 22:26:13 63° ENE 22:29:16 20° SSE
Lacrosse 5 rocket 0.8 22:23:05 10° SW 22:26:43 73° SE 22:30:18 10° ENE
ATLAS 3B R/B 2.6 22:21:49 10° SSW 22:28:19 72° SE 22:35:07 10° NE
SJ 16-02 3.8 22:26:49 10° N 22:29:24 15° NE 22:31:58 10° E
ERS-1 Rocket 4.4 22:25:02 10° SSW 22:29:27 30° W 22:33:52 10° NNW
Cosmos 2333 4.4 22:28:23 10° SW 22:34:08 78° WNW 22:39:54 10° NNE
ALOS 2 3.6 22:32:40 15° SE 22:35:48 38° ENE 22:39:52 10° N
Cosmos 1943 Rocket 4.0 22:33:29 10° NNW 22:38:01 25° NE 22:42:32 10° E
Cosmos 1503 Rocket 4.2 22:34:29 10° NNW 22:39:54 70° ENE 22:43:52 18° SE
Spot 4 3.9 22:39:08 20° SSE 22:42:28 73° ENE 22:47:15 10° NNW
Cosmos 1626 4.3 22:40:30 10° WSW 22:43:31 23° WNW 22:46:33 10° NNW
USA 215 3.4 22:39:04 10° ENE 22:45:26 52° SE 22:51:47 10° SW
Cosmos 2333 Rocket 2.4 22:39:43 10° SW 22:45:29 77° WNW 22:51:15 10° NNE
Cosmos 1302 Rocket 4.3 22:45:56 10° SW 22:51:10 67° WNW 22:56:25 10° NNE
Meteor 2-10 Rocket 3.7 22:46:15 10° NNW 22:51:19 62° W 22:54:49 19° S
Cosmos 2219 Rocket 2.4 22:50:34 10° SW 22:56:15 74° WNW 23:01:58 10° NNE
Cosmos 1464 Rocket 4.2 22:51:05 10° N 22:57:27 70° ENE 23:02:03 20° SSE
Cosmos 1867 3.9 22:53:00 10° NW 22:58:23 55° WSW 23:01:49 22° SSE
Cosmos 1607 4.0 22:53:37 10° NW 23:00:06 87° SW 23:05:04 17° SE
Cosmos 389 Rocket 3.1 22:59:00 10° NNW 23:02:17 44° W 23:04:01 23° SSW
Iridium 2 3.6 23:05:20 25° S 23:07:25 83° W 23:11:12 10° N
COBE Rocket 3.9 23:04:31 22° SSE 23:07:49 87° ENE 23:12:47 10° NNW
Meteor 1-24 Rocket 4.2 23:03:16 11° SSW 23:08:20 53° WNW 23:13:45 10° N
SL-16 R/B 3.8 23:06:17 15° SE 23:08:50 20° E 23:12:54 10° NE
Cosmos 2228 4.0 23:06:47 10° NNW 23:10:56 41° W 23:13:45 18° SSW
Cosmos 2237 Rocket 2.4 23:09:08 21° S 23:12:45 54° ESE 23:18:14 10° NE
Meteor 1-4 Rocket 3.5 23:11:42 10° N 23:14:59 36° ENE 23:16:45 21° SE
Cosmos 1455 2.5 23:14:54 10° NNW 23:18:42 59° W 23:20:36 26° SSW
Cosmos 2360 Rocket 4.2 23:14:28 10° WSW 23:19:20 29° NW 23:24:13 10° NNE
Cosmos 2369 Rocket 4.0 23:15:40 10° NNW 23:20:34 28° NE 23:25:28 10° E
USA 267 3.2 23:14:47 12° SE 23:20:56 70° SW 23:27:30 10° WNW
ATLAS CENTAUR R/B 3.6 23:20:18 10° W 23:22:45 15° WSW 23:24:30 12° SW
Cosmos 1184 Rocket 2.7 23:22:45 34° S 23:24:02 80° E 23:27:18 10° NNE
Cosmos 1777 Rocket 4.1 23:24:27 10° NNW 23:29:47 77° ENE 23:33:25 21° SSE
Okean 1-7 Rocket 3.6 23:27:36 26° S 23:30:04 72° E 23:34:31 10° NNE
FALCON 9 DEB 2.7 23:27:03 10° WSW 23:30:10 72° SSE 23:33:18 10° ENE
Cosmos 2034 Rocket 4.0 23:25:20 10° N 23:31:35 85° E 23:35:44 22° SSE
Terra 4.3 23:30:56 10° WSW 23:32:25 11° W 23:33:55 10° WNW
Cosmos 1354 Rocket 4.4 23:31:12 10° NNW 23:36:24 53° WSW 23:39:29 24° S
Meteor 1-21 Rocket 4.2 23:33:19 22° S 23:37:03 84° E 23:42:49 10° NNE
COSMOS 2428 3.6 23:31:59 10° SW 23:37:33 49° NW 23:43:09 10° NNE
Cosmos 1992 Rocket 4.4 23:34:09 13° SW 23:38:46 61° WNW 23:43:59 10° NNE
Cosmos 2297 3.9 23:36:13 10° NNW 23:41:51 67° ENE 23:46:31 15° SE
Cosmos 192 4.3 23:38:56 23° SSW 23:42:00 78° ESE 23:46:57 10° NNE
Cosmos 2058 Rocket 3.6 23:37:52 10° NNW 23:42:11 48° W 23:44:34 24° SSW
Cosmos 2278 Rocket 3.0 23:37:31 10° NW 23:42:43 38° WSW 23:45:51 21° SSW
Cosmos 1812 Rocket 4.0 23:38:26 10° N 23:42:43 55° ENE 23:45:17 23° SSE
Cosmos 724 4.4 23:39:35 10° NW 23:45:50 88° NE 23:50:57 15° SE
GENESIS II 4.1 23:46:52 20° SW 23:49:27 89° NNW 23:53:22 10° NE
FALCON 9 DEB 3.6 23:47:16 10° W 23:50:39 62° N 23:54:02 10° E
FALCON 9 DEB 2.9 23:47:35 10° WSW 23:50:41 79° NNW 23:53:48 10° ENE
FALCON 9 DEB 2.8 23:51:26 10° WSW 23:54:34 85° NNW 23:57:42 10° ENE
